Time,TemperatureF,DewpointF,PressureIn,WindDirection,WindDirectionDegrees,WindSpeedMPH,WindSpeedGustMPH,Humidity,HourlyPrecipIn,Conditions,Clouds,dailyrainin,SoftwareType,DateUTC
2013-07-23 00:02:00,64.0,58.7,29.82,NNE,27,2.0,3.0,83,0.00,,,0.00,Wunderground v.1.15,2013-07-23 05:02:00,
2013-07-23 00:08:00,63.7,58.8,29.83,North,11,2.0,3.0,84,0.00,,,0.00,Wunderground v.1.15,2013-07-23 05:08:00,
2013-07-23 00:13:00,63.5,58.6,29.83,North,11,1.0,3.0,84,0.00,,,0.00,Wunderground v.1.15,2013-07-23 05:13:00,
2013-07-23 00:19:00,63.3,58.4,29.83,North,11,2.0,2.0,84,0.00,,,0.00,Wunderground v.1.15,2013-07-23 05:19:00,
2013-07-23 00:25:00,63.3,58.0,29.82,NNW,332,3.0,3.0,83,0.00,,,0.00,Wunderground v.1.15,2013-07-23 05:25:00,
2013-07-23 00:30:00,63.3,58.0,29.83,WNW,296,3.0,3.0,83,0.00,,,0.00,Wunderground v.1.15,2013-07-23 05:30:00,
2013-07-23 00:36:00,63.1,57.9,29.83,NW,316,3.0,3.0,83,0.00,,,0.00,Wunderground v.1.15,2013-07-23 05:36:00,
2013-07-23 00:42:00,63.0,57.8,29.83,NW,317,4.0,4.0,83,0.00,,,0.00,Wunderground v.1.15,2013-07-23 05:42:00,
2013-07-23 00:48:00,62.6,57.4,29.83,NW,311,3.0,3.0,83,0.00,,,0.00,Wunderground v.1.15,2013-07-23 05:48:00,
2013-07-23 00:54:00,62.2,57.3,29.83,NW,318,4.0,4.0,84,0.00,,,0.00,Wunderground v.1.15,2013-07-23 05:54:00,
2013-07-23 01:00:00,62.0,57.1,29.82,NW,321,3.0,4.0,84,0.00,,,0.00,Wunderground v.1.15,2013-07-23 06:00:00,
2013-07-23 01:06:00,61.5,56.9,29.83,WNW,303,4.0,4.0,85,0.00,,,0.00,Wunderground v.1.15,2013-07-23 06:06:00,
2013-07-23 01:11:00,61.4,56.8,29.83,WNW,300,3.0,4.0,85,0.00,,,0.00,Wunderground v.1.15,2013-07-23 06:11:00,
2013-07-23 01:17:00,61.4,56.8,29.83,WNW,296,4.0,4.0,85,0.00,,,0.00,Wunderground v.1.15,2013-07-23 06:17:00,
2013-07-23 01:23:00,61.3,56.8,29.83,NW,316,4.0,4.0,85,0.00,,,0.00,Wunderground v.1.15,2013-07-23 06:23:00,
2013-07-23 01:28:00,61.2,56.7,29.83,NW,318,2.0,4.0,85,0.00,,,0.00,Wunderground v.1.15,2013-07-23 06:28:00,
2013-07-23 01:34:00,61.1,56.9,29.83,NW,316,5.0,5.0,86,0.00,,,0.00,Wunderground v.1.15,2013-07-23 06:34:00,
2013-07-23 01:40:00,60.9,56.7,29.83,NNW,327,4.0,5.0,86,0.00,,,0.00,Wunderground v.1.15,2013-07-23 06:40:00,
2013-07-23 01:46:00,60.3,56.1,29.82,NNW,331,2.0,5.0,86,0.00,,,0.00,Wunderground v.1.15,2013-07-23 06:46:00,
2013-07-23 01:51:00,59.5,55.6,29.82,NNW,333,2.0,5.0,87,0.00,,,0.00,Wunderground v.1.15,2013-07-23 06:51:00,
2013-07-23 01:57:00,59.0,55.4,29.83,NNW,335,4.0,4.0,88,0.00,,,0.00,Wunderground v.1.15,2013-07-23 06:57:00,
2013-07-23 02:03:00,58.6,55.4,29.83,NW,317,3.0,4.0,89,0.00,,,0.00,Wunderground v.1.15,2013-07-23 07:03:00,
2013-07-23 02:08:00,58.5,55.3,29.83,NW,323,2.0,4.0,89,0.00,,,0.00,Wunderground v.1.15,2013-07-23 07:08:00,
2013-07-23 02:13:00,58.4,55.2,29.83,NW,321,3.0,4.0,89,0.00,,,0.00,Wunderground v.1.15,2013-07-23 07:13:00,
2013-07-23 02:18:00,58.2,55.0,29.83,NW,321,3.0,4.0,89,0.00,,,0.00,Wunderground v.1.15,2013-07-23 07:18:00,
2013-07-23 02:23:00,58.2,55.0,29.83,NW,315,3.0,4.0,89,0.00,,,0.00,Wunderground v.1.15,2013-07-23 07:23:00,
2013-07-23 02:28:00,58.3,55.4,29.84,NW,325,4.0,5.0,90,0.00,,,0.00,Wunderground v.1.15,2013-07-23 07:28:00,
2013-07-23 02:33:00,58.3,55.1,29.84,NW,317,2.0,5.0,89,0.00,,,0.00,Wunderground v.1.15,2013-07-23 07:33:00,
2013-07-23 02:38:00,58.2,55.0,29.84,NW,315,3.0,4.0,89,0.00,,,0.00,Wunderground v.1.15,2013-07-23 07:38:00,
2013-07-23 02:43:00,58.1,54.9,29.84,NNW,330,4.0,5.0,89,0.00,,,0.00,Wunderground v.1.15,2013-07-23 07:43:00,
2013-07-23 02:48:00,58.1,54.9,29.84,NW,317,5.0,5.0,89,0.00,,,0.00,Wunderground v.1.15,2013-07-23 07:48:00,
2013-07-23 02:53:00,57.9,54.7,29.84,NNW,336,4.0,5.0,89,0.00,,,0.00,Wunderground v.1.15,2013-07-23 07:53:00,
2013-07-23 02:58:00,57.5,54.3,29.84,North,351,3.0,5.0,89,0.00,,,0.00,Wunderground v.1.15,2013-07-23 07:58:00,
2013-07-23 03:03:00,56.9,54.0,29.84,North,355,2.0,5.0,90,0.00,,,0.00,Wunderground v.1.15,2013-07-23 08:03:00,
2013-07-23 03:08:00,56.7,54.1,29.84,North,360,4.0,5.0,91,0.00,,,0.00,Wunderground v.1.15,2013-07-23 08:08:00,
2013-07-23 03:13:00,56.8,54.5,29.84,NNW,343,5.0,6.0,92,0.00,,,0.00,Wunderground v.1.15,2013-07-23 08:13:00,
2013-07-23 03:18:00,56.9,54.6,29.85,NNW,343,5.0,6.0,92,0.00,,,0.00,Wunderground v.1.15,2013-07-23 08:18:00,
2013-07-23 03:23:00,57.1,54.8,29.85,NW,316,3.0,6.0,92,0.00,,,0.00,Wunderground v.1.15,2013-07-23 08:23:00,
2013-07-23 03:28:00,57.1,54.8,29.86,NW,321,4.0,5.0,92,0.00,,,0.00,Wunderground v.1.15,2013-07-23 08:28:00,
2013-07-23 03:33:00,57.3,55.3,29.86,NW,315,5.0,8.0,93,0.00,,,0.00,Wunderground v.1.15,2013-07-23 08:33:00,
2013-07-23 03:38:00,57.5,55.2,29.87,NW,323,4.0,6.0,92,0.00,,,0.00,Wunderground v.1.15,2013-07-23 08:38:00,
2013-07-23 03:43:00,57.5,54.9,29.87,NNW,327,3.0,6.0,91,0.00,,,0.00,Wunderground v.1.15,2013-07-23 08:43:00,
2013-07-23 03:48:00,57.5,54.9,29.87,NW,320,3.0,5.0,91,0.00,,,0.00,Wunderground v.1.15,2013-07-23 08:48:00,
2013-07-23 03:53:00,57.4,54.8,29.87,NW,317,4.0,5.0,91,0.00,,,0.00,Wunderground v.1.15,2013-07-23 08:53:00,
2013-07-23 03:58:00,57.3,54.7,29.87,NNW,342,5.0,7.0,91,0.00,,,0.00,Wunderground v.1.15,2013-07-23 08:58:00,
2013-07-23 04:03:00,57.2,54.9,29.88,NNW,348,6.0,8.0,92,0.00,,,0.00,Wunderground v.1.15,2013-07-23 09:03:00,
2013-07-23 04:08:00,57.1,54.8,29.87,North,351,5.0,9.0,92,0.00,,,0.00,Wunderground v.1.15,2013-07-23 09:08:00,
2013-07-23 04:13:00,57.3,55.0,29.86,NNW,342,9.0,9.0,92,0.00,,,0.00,Wunderground v.1.15,2013-07-23 09:13:00,
2013-07-23 04:18:00,57.5,55.2,29.86,North,350,9.0,11.0,92,0.00,,,0.00,Wunderground v.1.15,2013-07-23 09:18:00,
2013-07-23 04:23:00,57.8,55.5,29.86,North,355,4.0,11.0,92,0.00,,,0.00,Wunderground v.1.15,2013-07-23 09:23:00,
2013-07-23 04:28:00,58.1,55.8,29.87,North,11,7.0,9.0,92,0.00,,,0.00,Wunderground v.1.15,2013-07-23 09:28:00,
2013-07-23 04:33:00,58.3,55.7,29.87,North,349,4.0,9.0,91,0.00,,,0.00,Wunderground v.1.15,2013-07-23 09:33:00,
2013-07-23 04:38:00,58.3,55.7,29.87,NNW,341,6.0,9.0,91,0.00,,,0.00,Wunderground v.1.15,2013-07-23 09:38:00,
2013-07-23 04:43:00,58.5,55.9,29.86,North,5,8.0,10.0,91,0.00,,,0.00,Wunderground v.1.15,2013-07-23 09:43:00,
2013-07-23 04:48:00,58.7,56.1,29.86,North,360,9.0,10.0,91,0.00,,,0.00,Wunderground v.1.15,2013-07-23 09:48:00,
2013-07-23 04:53:00,58.9,56.3,29.86,North,355,6.0,10.0,91,0.00,,,0.00,Wunderground v.1.15,2013-07-23 09:53:00,
2013-07-23 04:58:00,59.1,56.2,29.86,North,349,5.0,9.0,90,0.00,,,0.00,Wunderground v.1.15,2013-07-23 09:58:00,
2013-07-23 05:03:00,59.3,56.4,29.85,NNE,31,8.0,12.0,90,0.00,,,0.00,Wunderground v.1.15,2013-07-23 10:03:00,
2013-07-23 05:09:00,59.5,56.3,29.84,NNE,33,9.0,13.0,89,0.00,,,0.00,Wunderground v.1.15,2013-07-23 10:09:00,
2013-07-23 05:14:00,59.7,56.5,29.84,NE,44,6.0,10.0,89,0.00,,,0.00,Wunderground v.1.15,2013-07-23 10:14:00,
2013-07-23 05:19:00,59.8,56.6,29.84,NNE,13,5.0,11.0,89,0.00,,,0.00,Wunderground v.1.15,2013-07-23 10:19:00,
2013-07-23 05:24:00,59.6,56.4,29.84,NE,46,10.0,12.0,89,0.00,,,0.00,Wunderground v.1.15,2013-07-23 10:24:00,
2013-07-23 05:29:00,59.3,56.1,29.84,NE,46,7.0,14.0,89,0.00,,,0.00,Wunderground v.1.15,2013-07-23 10:29:00,
2013-07-23 05:34:00,59.1,55.9,29.85,NNE,19,9.0,10.0,89,0.00,,,0.00,Wunderground v.1.15,2013-07-23 10:34:00,
2013-07-23 05:39:00,59.0,56.1,29.86,North,5,8.0,11.0,90,0.00,,,0.00,Wunderground v.1.15,2013-07-23 10:39:00,
2013-07-23 05:44:00,59.0,56.1,29.88,NW,322,4.0,7.0,90,0.00,,,0.00,Wunderground v.1.15,2013-07-23 10:44:00,
2013-07-23 05:49:00,59.0,56.1,29.91,West,265,6.0,9.0,90,0.00,,,0.00,Wunderground v.1.15,2013-07-23 10:49:00,
2013-07-23 05:54:00,59.1,56.2,29.89,NNE,15,5.0,7.0,90,0.00,,,0.00,Wunderground v.1.15,2013-07-23 10:54:00,
2013-07-23 05:59:00,59.1,56.2,29.90,West,271,4.0,8.0,90,0.00,,,0.00,Wunderground v.1.15,2013-07-23 10:59:00,
2013-07-23 06:04:00,59.2,56.0,29.89,North,360,4.0,4.0,89,0.00,,,0.00,Wunderground v.1.15,2013-07-23 11:04:00,
2013-07-23 06:09:00,59.2,56.3,29.89,NNW,348,5.0,7.0,90,0.00,,,0.00,Wunderground v.1.15,2013-07-23 11:09:00,
2013-07-23 06:14:00,59.1,56.2,29.89,NNW,347,4.0,4.0,90,0.00,,,0.00,Wunderground v.1.15,2013-07-23 11:14:00,
2013-07-23 06:19:00,59.0,56.1,29.89,NNW,348,4.0,6.0,90,0.00,,,0.00,Wunderground v.1.15,2013-07-23 11:19:00,
2013-07-23 06:25:00,59.0,56.1,29.89,NNW,335,6.0,8.0,90,0.00,,,0.00,Wunderground v.1.15,2013-07-23 11:25:00,
2013-07-23 06:30:00,59.0,56.1,29.90,North,355,4.0,9.0,90,0.00,,,0.00,Wunderground v.1.15,2013-07-23 11:30:00,
2013-07-23 06:35:00,59.0,56.1,29.90,North,360,5.0,6.0,90,0.00,,,0.00,Wunderground v.1.15,2013-07-23 11:35:00,
2013-07-23 06:40:00,59.2,56.3,29.91,NW,319,4.0,6.0,90,0.00,,,0.00,Wunderground v.1.15,2013-07-23 11:40:00,
2013-07-23 06:44:00,59.3,56.4,29.92,NW,322,5.0,6.0,90,0.00,,,0.00,Wunderground v.1.15,2013-07-23 11:44:00,
2013-07-23 06:50:00,59.5,56.6,29.92,NW,313,5.0,6.0,90,0.00,,,0.00,Wunderground v.1.15,2013-07-23 11:50:00,
2013-07-23 06:55:00,59.6,56.4,29.92,NW,318,4.0,6.0,89,0.00,,,0.00,Wunderground v.1.15,2013-07-23 11:55:00,
2013-07-23 07:00:00,59.6,56.4,29.92,WNW,297,3.0,6.0,89,0.00,,,0.00,Wunderground v.1.15,2013-07-23 12:00:00,
2013-07-23 07:05:00,59.6,56.7,29.93,WNW,296,3.0,5.0,90,0.00,,,0.00,Wunderground v.1.15,2013-07-23 12:05:00,
2013-07-23 07:10:00,59.6,56.4,29.92,WNW,303,3.0,5.0,89,0.00,,,0.00,Wunderground v.1.15,2013-07-23 12:10:00,
2013-07-23 07:15:00,59.6,56.7,29.92,NW,325,3.0,3.0,90,0.00,,,0.00,Wunderground v.1.15,2013-07-23 12:15:00,
2013-07-23 07:20:00,59.7,56.8,29.92,NW,306,2.0,4.0,90,0.00,,,0.00,Wunderground v.1.15,2013-07-23 12:20:00,
2013-07-23 07:25:00,59.7,56.8,29.92,WNW,286,3.0,4.0,90,0.00,,,0.00,Wunderground v.1.15,2013-07-23 12:25:00,
2013-07-23 07:30:00,59.7,56.8,29.91,WNW,299,3.0,4.0,90,0.00,,,0.00,Wunderground v.1.15,2013-07-23 12:30:00,
2013-07-23 07:35:00,59.7,56.8,29.91,NW,304,3.0,4.0,90,0.00,,,0.00,Wunderground v.1.15,2013-07-23 12:35:00,
2013-07-23 07:40:00,59.8,57.2,29.91,NW,318,3.0,4.0,91,0.00,,,0.00,Wunderground v.1.15,2013-07-23 12:40:00,
2013-07-23 07:45:00,59.9,57.3,29.91,NW,311,4.0,4.0,91,0.00,,,0.00,Wunderground v.1.15,2013-07-23 12:45:00,
2013-07-23 07:50:00,60.1,57.5,29.91,NW,318,4.0,5.0,91,0.00,,,0.00,Wunderground v.1.15,2013-07-23 12:50:00,
2013-07-23 07:55:00,60.4,57.8,29.90,NNW,336,3.0,5.0,91,0.00,,,0.00,Wunderground v.1.15,2013-07-23 12:55:00,
2013-07-23 08:00:00,61.2,57.9,29.91,NNW,340,3.0,5.0,89,0.00,,,0.00,Wunderground v.1.15,2013-07-23 13:00:00,
2013-07-23 08:05:00,61.4,58.1,29.91,NNW,342,3.0,3.0,89,0.00,,,0.00,Wunderground v.1.15,2013-07-23 13:05:00,
2013-07-23 08:10:00,62.0,58.1,29.92,NNW,342,5.0,8.0,87,0.00,,,0.00,Wunderground v.1.15,2013-07-23 13:10:00,
2013-07-23 08:15:00,62.1,57.5,29.91,NNW,341,5.0,6.0,85,0.00,,,0.00,Wunderground v.1.15,2013-07-23 13:15:00,
2013-07-23 08:20:00,62.0,57.4,29.91,North,355,8.0,9.0,85,0.00,,,0.00,Wunderground v.1.15,2013-07-23 13:20:00,
2013-07-23 08:25:00,62.7,58.1,29.92,North,360,6.0,8.0,85,0.00,,,0.00,Wunderground v.1.15,2013-07-23 13:25:00,
2013-07-23 08:30:00,63.7,58.4,29.91,North,360,5.0,9.0,83,0.00,,,0.00,Wunderground v.1.15,2013-07-23 13:30:00,
2013-07-23 08:35:00,64.2,58.9,29.92,NNE,12,9.0,10.0,83,0.00,,,0.00,Wunderground v.1.15,2013-07-23 13:35:00,
2013-07-23 08:40:00,64.1,58.5,29.92,NNE,13,5.0,10.0,82,0.00,,,0.00,Wunderground v.1.15,2013-07-23 13:40:00,
2013-07-23 08:45:00,63.8,58.2,29.92,North,5,8.0,9.0,82,0.00,,,0.00,Wunderground v.1.15,2013-07-23 13:45:00,
2013-07-23 08:50:00,63.8,58.2,29.91,NNE,31,6.0,12.0,82,0.00,,,0.00,Wunderground v.1.15,2013-07-23 13:50:00,
2013-07-23 08:55:00,64.9,58.9,29.91,North,360,8.0,11.0,81,0.00,,,0.00,Wunderground v.1.15,2013-07-23 13:55:00,
2013-07-23 09:00:00,64.7,58.4,29.91,NE,42,6.0,11.0,80,0.00,,,0.00,Wunderground v.1.15,2013-07-23 14:00:00,
2013-07-23 09:05:00,64.3,58.0,29.91,NE,46,7.0,11.0,80,0.00,,,0.00,Wunderground v.1.15,2013-07-23 14:05:00,
2013-07-23 09:10:00,63.9,58.3,29.91,NE,42,5.0,13.0,82,0.00,,,0.00,Wunderground v.1.15,2013-07-23 14:10:00,
2013-07-23 09:15:00,64.0,58.4,29.90,NE,46,6.0,10.0,82,0.00,,,0.00,Wunderground v.1.15,2013-07-23 14:15:00,
2013-07-23 09:20:00,64.1,58.1,29.91,NE,39,6.0,10.0,81,0.00,,,0.00,Wunderground v.1.15,2013-07-23 14:20:00,
2013-07-23 09:25:00,64.1,58.1,29.91,NNE,31,3.0,7.0,81,0.00,,,0.00,Wunderground v.1.15,2013-07-23 14:25:00,
2013-07-23 09:30:00,64.3,58.3,29.92,NE,36,7.0,9.0,81,0.00,,,0.00,Wunderground v.1.15,2013-07-23 14:30:00,
2013-07-23 09:35:00,64.5,58.5,29.92,North,9,5.0,7.0,81,0.00,,,0.00,Wunderground v.1.15,2013-07-23 14:35:00,
2013-07-23 09:40:00,64.5,58.2,29.92,NNE,22,5.0,8.0,80,0.00,,,0.00,Wunderground v.1.15,2013-07-23 14:40:00,
2013-07-23 09:45:00,64.8,58.5,29.92,NE,40,3.0,5.0,80,0.00,,,0.00,Wunderground v.1.15,2013-07-23 14:45:00,
2013-07-23 09:50:00,65.2,58.2,29.92,NNE,17,3.0,9.0,78,0.00,,,0.00,Wunderground v.1.15,2013-07-23 14:50:00,
2013-07-23 09:55:00,65.2,58.2,29.92,NE,49,4.0,6.0,78,0.00,,,0.00,Wunderground v.1.15,2013-07-23 14:55:00,
2013-07-23 10:00:00,65.2,58.2,29.93,NNE,32,3.0,6.0,78,0.00,,,0.00,Wunderground v.1.15,2013-07-23 15:00:00,
2013-07-23 10:05:00,65.3,58.3,29.93,North,9,4.0,6.0,78,0.00,,,0.00,Wunderground v.1.15,2013-07-23 15:05:00,
2013-07-23 10:10:00,65.6,58.2,29.94,North,5,8.0,8.0,77,0.00,,,0.00,Wunderground v.1.15,2013-07-23 15:10:00,
2013-07-23 10:15:00,65.9,58.5,29.94,North,9,4.0,7.0,77,0.00,,,0.00,Wunderground v.1.15,2013-07-23 15:15:00,
2013-07-23 10:21:00,66.0,58.9,29.94,NNE,15,5.0,9.0,78,0.00,,,0.00,Wunderground v.1.15,2013-07-23 15:21:00,
2013-07-23 10:26:00,66.1,59.0,29.95,North,355,5.0,6.0,78,0.00,,,0.00,Wunderground v.1.15,2013-07-23 15:26:00,
2013-07-23 10:31:00,66.2,58.4,29.95,NNE,15,7.0,10.0,76,0.00,,,0.00,Wunderground v.1.15,2013-07-23 15:31:00,
2013-07-23 10:36:00,66.3,58.1,29.95,North,9,9.0,11.0,75,0.00,,,0.00,Wunderground v.1.15,2013-07-23 15:36:00,
2013-07-23 10:41:00,66.4,58.2,29.95,NE,52,5.0,11.0,75,0.00,,,0.00,Wunderground v.1.15,2013-07-23 15:41:00,
2013-07-23 10:46:00,66.6,57.3,29.95,NE,42,4.0,8.0,72,0.00,,,0.00,Wunderground v.1.15,2013-07-23 15:46:00,
2013-07-23 10:51:00,66.8,57.9,29.95,NE,40,5.0,10.0,73,0.00,,,0.00,Wunderground v.1.15,2013-07-23 15:51:00,
2013-07-23 10:56:00,67.2,57.5,29.95,NE,41,6.0,10.0,71,0.00,,,0.00,Wunderground v.1.15,2013-07-23 15:56:00,
2013-07-23 11:01:00,67.9,57.8,29.95,ENE,68,6.0,10.0,70,0.00,,,0.00,Wunderground v.1.15,2013-07-23 16:01:00,
2013-07-23 11:06:00,68.6,58.0,29.95,NE,42,3.0,6.0,69,0.00,,,0.00,Wunderground v.1.15,2013-07-23 16:06:00,
2013-07-23 11:11:00,68.3,56.5,29.95,NE,55,6.0,8.0,66,0.00,,,0.00,Wunderground v.1.15,2013-07-23 16:11:00,
2013-07-23 11:16:00,68.5,56.7,29.95,NNE,33,5.0,6.0,66,0.00,,,0.00,Wunderground v.1.15,2013-07-23 16:16:00,
2013-07-23 11:21:00,68.7,57.7,29.95,NNE,25,6.0,7.0,68,0.00,,,0.00,Wunderground v.1.15,2013-07-23 16:21:00,
2013-07-23 11:26:00,68.5,56.3,29.95,ENE,59,5.0,11.0,65,0.00,,,0.00,Wunderground v.1.15,2013-07-23 16:26:00,
2013-07-23 11:31:00,68.9,56.6,29.94,NNE,14,8.0,11.0,65,0.00,,,0.00,Wunderground v.1.15,2013-07-23 16:31:00,
2013-07-23 11:36:00,68.5,55.8,29.93,NE,55,9.0,13.0,64,0.00,,,0.00,Wunderground v.1.15,2013-07-23 16:36:00,
2013-07-23 11:41:00,67.7,55.9,29.94,NNE,32,8.0,13.0,66,0.00,,,0.00,Wunderground v.1.15,2013-07-23 16:41:00,
2013-07-23 11:46:00,67.2,55.9,29.94,ENE,59,9.0,12.0,67,0.00,,,0.00,Wunderground v.1.15,2013-07-23 16:46:00,
2013-07-23 11:51:00,67.1,56.2,29.94,NNE,32,8.0,12.0,68,0.00,,,0.00,Wunderground v.1.15,2013-07-23 16:51:00,
2013-07-23 11:56:00,67.5,57.0,29.94,NNE,21,7.0,7.0,69,0.00,,,0.00,Wunderground v.1.15,2013-07-23 16:56:00,
2013-07-23 12:01:00,68.0,56.6,29.94,North,9,5.0,9.0,67,0.00,,,0.00,Wunderground v.1.15,2013-07-23 17:01:00,
2013-07-23 12:06:00,67.9,56.9,29.95,NNE,28,6.0,10.0,68,0.00,,,0.00,Wunderground v.1.15,2013-07-23 17:06:00,
2013-07-23 12:11:00,67.8,56.9,29.95,North,9,7.0,10.0,68,0.00,,,0.00,Wunderground v.1.15,2013-07-23 17:11:00,
2013-07-23 12:16:00,67.9,56.9,29.96,NNE,23,3.0,8.0,68,0.00,,,0.00,Wunderground v.1.15,2013-07-23 17:16:00,
2013-07-23 12:21:00,68.2,56.8,29.95,ENE,59,5.0,8.0,67,0.00,,,0.00,Wunderground v.1.15,2013-07-23 17:21:00,
2013-07-23 12:26:00,68.5,57.9,29.95,ENE,58,5.0,6.0,69,0.00,,,0.00,Wunderground v.1.15,2013-07-23 17:26:00,
2013-07-23 12:31:00,69.2,59.0,29.95,ENE,65,5.0,7.0,70,0.00,,,0.00,Wunderground v.1.15,2013-07-23 17:31:00,
2013-07-23 12:36:00,69.5,57.6,29.95,NE,40,6.0,8.0,66,0.00,,,0.00,Wunderground v.1.15,2013-07-23 17:36:00,
2013-07-23 12:41:00,69.6,57.7,29.95,North,5,10.0,10.0,66,0.00,,,0.00,Wunderground v.1.15,2013-07-23 17:41:00,
2013-07-23 12:46:00,69.8,57.9,29.95,NNE,27,9.0,10.0,66,0.00,,,0.00,Wunderground v.1.15,2013-07-23 17:46:00,
2013-07-23 12:51:00,70.7,58.4,29.95,NNE,24,8.0,12.0,65,0.00,,,0.00,Wunderground v.1.15,2013-07-23 17:51:00,
2013-07-23 12:56:00,71.6,57.9,29.94,NNE,19,9.0,11.0,62,0.00,,,0.00,Wunderground v.1.15,2013-07-23 17:56:00,
2013-07-23 13:02:00,71.9,58.6,29.94,NNE,30,11.0,13.0,63,0.00,,,0.00,Wunderground v.1.15,2013-07-23 18:02:00,
2013-07-23 13:07:00,72.1,58.8,29.94,North,5,3.0,12.0,63,0.00,,,0.00,Wunderground v.1.15,2013-07-23 18:07:00,
2013-07-23 13:12:00,72.6,59.7,29.94,North,5,10.0,13.0,64,0.00,,,0.00,Wunderground v.1.15,2013-07-23 18:12:00,
2013-07-23 13:17:00,72.3,59.4,29.94,NNE,30,13.0,14.0,64,0.00,,,0.00,Wunderground v.1.15,2013-07-23 18:17:00,
2013-07-23 13:22:00,71.9,58.2,29.94,North,11,12.0,14.0,62,0.00,,,0.00,Wunderground v.1.15,2013-07-23 18:22:00,
2013-07-23 13:28:00,72.2,58.5,29.94,North,5,11.0,14.0,62,0.00,,,0.00,Wunderground v.1.15,2013-07-23 18:28:00,
2013-07-23 13:33:00,72.2,58.9,29.93,NNE,28,8.0,14.0,63,0.00,,,0.00,Wunderground v.1.15,2013-07-23 18:33:00,
2013-07-23 13:38:00,71.7,57.1,29.93,NNE,13,8.0,13.0,60,0.00,,,0.00,Wunderground v.1.15,2013-07-23 18:38:00,
2013-07-23 13:43:00,72.7,57.1,29.93,NNE,28,11.0,13.0,58,0.00,,,0.00,Wunderground v.1.15,2013-07-23 18:43:00,
2013-07-23 13:48:00,72.7,58.0,29.93,NNE,26,8.0,14.0,60,0.00,,,0.00,Wunderground v.1.15,2013-07-23 18:48:00,
2013-07-23 13:53:00,72.4,57.3,29.92,NNE,32,8.0,14.0,59,0.00,,,0.00,Wunderground v.1.15,2013-07-23 18:53:00,
2013-07-23 13:59:00,73.3,57.1,29.93,NE,49,7.0,15.0,57,0.00,,,0.00,Wunderground v.1.15,2013-07-23 18:59:00,
2013-07-23 14:04:00,73.1,57.9,29.93,NE,37,12.0,15.0,59,0.00,,,0.00,Wunderground v.1.15,2013-07-23 19:04:00,
2013-07-23 14:09:00,73.5,57.8,29.93,East,81,12.0,14.0,58,0.00,,,0.00,Wunderground v.1.15,2013-07-23 19:09:00,
2013-07-23 14:14:00,72.8,56.7,29.93,NE,49,9.0,10.0,57,0.00,,,0.00,Wunderground v.1.15,2013-07-23 19:14:00,
2013-07-23 14:19:00,71.8,57.6,29.93,East,87,9.0,11.0,61,0.00,,,0.00,Wunderground v.1.15,2013-07-23 19:19:00,
2013-07-23 14:24:00,72.0,58.3,29.92,NNE,19,8.0,8.0,62,0.00,,,0.00,Wunderground v.1.15,2013-07-23 19:24:00,
2013-07-23 14:30:00,72.3,57.2,29.92,NNE,32,3.0,14.0,59,0.00,,,0.00,Wunderground v.1.15,2013-07-23 19:30:00,
2013-07-23 14:35:00,72.6,57.4,29.92,ENE,57,10.0,10.0,59,0.00,,,0.00,Wunderground v.1.15,2013-07-23 19:35:00,
2013-07-23 14:40:00,71.9,57.7,29.92,NNE,31,6.0,10.0,61,0.00,,,0.00,Wunderground v.1.15,2013-07-23 19:40:00,
2013-07-23 14:45:00,71.5,57.3,29.92,ENE,59,10.0,10.0,61,0.00,,,0.00,Wunderground v.1.15,2013-07-23 19:45:00,
2013-07-23 14:50:00,72.0,57.8,29.92,NNE,33,6.0,11.0,61,0.00,,,0.00,Wunderground v.1.15,2013-07-23 19:50:00,
2013-07-23 14:55:00,72.4,57.7,29.92,NNE,21,8.0,12.0,60,0.00,,,0.00,Wunderground v.1.15,2013-07-23 19:55:00,
2013-07-23 15:00:00,72.8,57.6,29.92,NE,48,7.0,12.0,59,0.00,,,0.00,Wunderground v.1.15,2013-07-23 20:00:00,
2013-07-23 15:06:00,72.7,57.1,29.92,North,5,8.0,10.0,58,0.00,,,0.00,Wunderground v.1.15,2013-07-23 20:06:00,
2013-07-23 15:11:00,71.9,56.8,29.93,NNE,28,9.0,15.0,59,0.00,,,0.00,Wunderground v.1.15,2013-07-23 20:11:00,
2013-07-23 15:16:00,71.2,57.1,29.93,North,351,10.0,13.0,61,0.00,,,0.00,Wunderground v.1.15,2013-07-23 20:16:00,
2013-07-23 15:21:00,71.0,57.8,29.93,NE,38,11.0,14.0,63,0.00,,,0.00,Wunderground v.1.15,2013-07-23 20:21:00,
2013-07-23 15:26:00,71.0,57.3,29.93,NNE,18,11.0,12.0,62,0.00,,,0.00,Wunderground v.1.15,2013-07-23 20:26:00,
2013-07-23 15:31:00,72.8,59.0,29.93,NNE,14,10.0,12.0,62,0.00,,,0.00,Wunderground v.1.15,2013-07-23 20:31:00,
2013-07-23 15:37:00,73.8,58.6,29.92,NNE,28,9.0,15.0,59,0.00,,,0.00,Wunderground v.1.15,2013-07-23 20:37:00,
2013-07-23 15:42:00,73.5,59.2,29.93,NE,40,10.0,16.0,61,0.00,,,0.00,Wunderground v.1.15,2013-07-23 20:42:00,
2013-07-23 15:47:00,73.1,58.4,29.92,NNE,17,4.0,13.0,60,0.00,,,0.00,Wunderground v.1.15,2013-07-23 20:47:00,
2013-07-23 15:52:00,73.5,58.3,29.92,NNE,28,9.0,14.0,59,0.00,,,0.00,Wunderground v.1.15,2013-07-23 20:52:00,
2013-07-23 15:58:00,73.1,58.8,29.93,NE,49,7.0,15.0,61,0.00,,,0.00,Wunderground v.1.15,2013-07-23 20:58:00,
2013-07-23 16:03:00,73.5,57.8,29.92,NE,44,12.0,15.0,58,0.00,,,0.00,Wunderground v.1.15,2013-07-23 21:03:00,
2013-07-23 16:08:00,73.8,58.6,29.93,NNE,25,10.0,12.0,59,0.00,,,0.00,Wunderground v.1.15,2013-07-23 21:08:00,
2013-07-23 16:13:00,73.7,57.0,29.92,NNE,24,8.0,13.0,56,0.00,,,0.00,Wunderground v.1.15,2013-07-23 21:13:00,
2013-07-23 16:19:00,73.2,56.1,29.92,NNE,32,8.0,13.0,55,0.00,,,0.00,Wunderground v.1.15,2013-07-23 21:19:00,
2013-07-23 16:24:00,71.7,56.1,29.93,NE,42,6.0,8.0,58,0.00,,,0.00,Wunderground v.1.15,2013-07-23 21:24:00,
2013-07-23 16:29:00,71.0,56.4,29.93,NE,43,5.0,8.0,60,0.00,,,0.00,Wunderground v.1.15,2013-07-23 21:29:00,
2013-07-23 16:34:00,70.8,56.2,29.93,NE,53,6.0,6.0,60,0.00,,,0.00,Wunderground v.1.15,2013-07-23 21:34:00,
2013-07-23 16:39:00,70.6,55.6,29.94,NE,53,4.0,11.0,59,0.00,,,0.00,Wunderground v.1.15,2013-07-23 21:39:00,
2013-07-23 16:44:00,70.6,56.5,29.94,NNE,12,7.0,7.0,61,0.00,,,0.00,Wunderground v.1.15,2013-07-23 21:44:00,
2013-07-23 16:50:00,70.6,56.0,29.94,North,11,11.0,11.0,60,0.00,,,0.00,Wunderground v.1.15,2013-07-23 21:50:00,
2013-07-23 16:55:00,70.6,56.0,29.95,North,5,4.0,8.0,60,0.00,,,0.00,Wunderground v.1.15,2013-07-23 21:55:00,
2013-07-23 17:00:00,70.6,56.9,29.95,NNE,27,8.0,10.0,62,0.00,,,0.00,Wunderground v.1.15,2013-07-23 22:00:00,
2013-07-23 17:05:00,72.0,56.9,29.95,NNW,337,8.0,9.0,59,0.00,,,0.00,Wunderground v.1.15,2013-07-23 22:05:00,
2013-07-23 17:11:00,72.5,57.8,29.95,NE,51,6.0,10.0,60,0.00,,,0.00,Wunderground v.1.15,2013-07-23 22:11:00,
2013-07-23 17:16:00,73.1,56.5,29.94,NNE,27,4.0,8.0,56,0.00,,,0.00,Wunderground v.1.15,2013-07-23 22:16:00,
2013-07-23 17:21:00,72.7,56.6,29.94,North,360,6.0,8.0,57,0.00,,,0.00,Wunderground v.1.15,2013-07-23 22:21:00,
2013-07-23 17:26:00,72.5,56.9,29.94,North,9,7.0,8.0,58,0.00,,,0.00,Wunderground v.1.15,2013-07-23 22:26:00,
2013-07-23 17:31:00,72.5,55.9,29.94,North,355,5.0,8.0,56,0.00,,,0.00,Wunderground v.1.15,2013-07-23 22:31:00,
2013-07-23 17:36:00,72.7,55.6,29.94,NE,40,9.0,9.0,55,0.00,,,0.00,Wunderground v.1.15,2013-07-23 22:36:00,
2013-07-23 17:41:00,72.4,55.3,29.94,NNE,15,3.0,9.0,55,0.00,,,0.00,Wunderground v.1.15,2013-07-23 22:41:00,
2013-07-23 17:46:00,72.5,54.4,29.94,NE,35,6.0,9.0,53,0.00,,,0.00,Wunderground v.1.15,2013-07-23 22:46:00,
2013-07-23 17:51:00,72.4,54.8,29.94,North,355,5.0,9.0,54,0.00,,,0.00,Wunderground v.1.15,2013-07-23 22:51:00,
2013-07-23 17:57:00,72.9,55.3,29.94,NE,50,5.0,7.0,54,0.00,,,0.00,Wunderground v.1.15,2013-07-23 22:57:00,
2013-07-23 18:02:00,73.1,55.5,29.94,NNE,22,3.0,7.0,54,0.00,,,0.00,Wunderground v.1.15,2013-07-23 23:02:00,
2013-07-23 18:07:00,72.9,56.8,29.94,NE,43,1.0,5.0,57,0.00,,,0.00,Wunderground v.1.15,2013-07-23 23:07:00,
2013-07-23 18:12:00,72.8,56.2,29.95,NNE,33,3.0,5.0,56,0.00,,,0.00,Wunderground v.1.15,2013-07-23 23:12:00,
2013-07-23 18:17:00,72.8,55.2,29.94,NNW,327,4.0,5.0,54,0.00,,,0.00,Wunderground v.1.15,2013-07-23 23:17:00,
2013-07-23 18:22:00,72.9,56.8,29.94,NE,35,5.0,5.0,57,0.00,,,0.00,Wunderground v.1.15,2013-07-23 23:22:00,
2013-07-23 18:27:00,72.7,56.1,29.94,NNE,23,5.0,8.0,56,0.00,,,0.00,Wunderground v.1.15,2013-07-23 23:27:00,
2013-07-23 18:33:00,72.6,57.4,29.95,North,355,5.0,8.0,59,0.00,,,0.00,Wunderground v.1.15,2013-07-23 23:33:00,
2013-07-23 18:38:00,72.5,55.4,29.95,NNE,17,4.0,9.0,55,0.00,,,0.00,Wunderground v.1.15,2013-07-23 23:38:00,
2013-07-23 18:43:00,72.2,56.1,29.95,North,11,4.0,9.0,57,0.00,,,0.00,Wunderground v.1.15,2013-07-23 23:43:00,
2013-07-23 18:48:00,72.1,55.5,29.95,NNE,16,5.0,6.0,56,0.00,,,0.00,Wunderground v.1.15,2013-07-23 23:48:00,
2013-07-23 18:54:00,71.9,57.3,29.95,NNE,12,10.0,10.0,60,0.00,,,0.00,Wunderground v.1.15,2013-07-23 23:54:00,
2013-07-23 18:59:00,71.6,56.5,29.95,North,9,5.0,10.0,59,0.00,,,0.00,Wunderground v.1.15,2013-07-23 23:59:00,
2013-07-23 19:04:00,71.6,57.0,29.95,NNE,14,4.0,5.0,60,0.00,,,0.00,Wunderground v.1.15,2013-07-24 00:04:00,
2013-07-23 19:09:00,71.6,57.4,29.95,NNE,24,5.0,7.0,61,0.00,,,0.00,Wunderground v.1.15,2013-07-24 00:09:00,
2013-07-23 19:15:00,71.4,57.7,29.95,NNE,19,5.0,5.0,62,0.00,,,0.00,Wunderground v.1.15,2013-07-24 00:15:00,
2013-07-23 19:20:00,71.2,58.0,29.95,North,5,5.0,6.0,63,0.00,,,0.00,Wunderground v.1.15,2013-07-24 00:20:00,
2013-07-23 19:25:00,71.3,58.5,29.95,NNE,26,3.0,4.0,64,0.00,,,0.00,Wunderground v.1.15,2013-07-24 00:25:00,
2013-07-23 19:31:00,71.2,58.4,29.95,NNE,24,2.0,5.0,64,0.00,,,0.00,Wunderground v.1.15,2013-07-24 00:31:00,
2013-07-23 19:36:00,70.8,58.0,29.95,NE,40,3.0,5.0,64,0.00,,,0.00,Wunderground v.1.15,2013-07-24 00:36:00,
2013-07-23 19:42:00,70.5,58.2,29.95,NE,36,2.0,5.0,65,0.00,,,0.00,Wunderground v.1.15,2013-07-24 00:42:00,
2013-07-23 19:47:00,70.4,58.1,29.95,NNE,26,2.0,4.0,65,0.00,,,0.00,Wunderground v.1.15,2013-07-24 00:47:00,
2013-07-23 19:52:00,70.2,58.7,29.95,NNE,31,2.0,4.0,67,0.00,,,0.00,Wunderground v.1.15,2013-07-24 00:52:00,
2013-07-23 19:57:00,69.9,58.9,29.95,NNE,31,2.0,2.0,68,0.00,,,0.00,Wunderground v.1.15,2013-07-24 00:57:00,
2013-07-23 20:02:00,69.7,59.1,29.95,NNE,31,1.0,2.0,69,0.00,,,0.00,Wunderground v.1.15,2013-07-24 01:02:00,
2013-07-23 20:08:00,69.6,59.4,29.95,NNE,31,1.0,2.0,70,0.00,,,0.00,Wunderground v.1.15,2013-07-24 01:08:00,
2013-07-23 20:13:00,69.5,60.1,29.95,NNE,31,0.0,2.0,72,0.00,,,0.00,Wunderground v.1.15,2013-07-24 01:13:00,
2013-07-23 20:18:00,69.1,59.3,29.95,NNE,31,0.0,1.0,71,0.00,,,0.00,Wunderground v.1.15,2013-07-24 01:18:00,
2013-07-23 20:24:00,68.8,58.6,29.95,NNE,31,0.0,1.0,70,0.00,,,0.00,Wunderground v.1.15,2013-07-24 01:24:00,
2013-07-23 20:29:00,68.6,58.8,29.95,NNE,31,0.0,1.0,71,0.00,,,0.00,Wunderground v.1.15,2013-07-24 01:29:00,
2013-07-23 20:34:00,68.2,59.2,29.95,NNE,31,0.0,0.0,73,0.00,,,0.00,Wunderground v.1.15,2013-07-24 01:34:00,
2013-07-23 20:39:00,67.8,58.8,29.95,NNE,31,0.0,0.0,73,0.00,,,0.00,Wunderground v.1.15,2013-07-24 01:39:00,
2013-07-23 20:44:00,67.6,58.6,29.95,NNE,31,0.0,0.0,73,0.00,,,0.00,Wunderground v.1.15,2013-07-24 01:44:00,
2013-07-23 20:49:00,67.4,58.4,29.95,NNE,31,1.0,1.0,73,0.00,,,0.00,Wunderground v.1.15,2013-07-24 01:49:00,
2013-07-23 20:54:00,67.1,58.2,29.95,NNE,31,1.0,2.0,73,0.00,,,0.00,Wunderground v.1.15,2013-07-24 01:54:00,
2013-07-23 21:00:00,66.9,58.3,29.95,NNE,31,2.0,2.0,74,0.00,,,0.00,Wunderground v.1.15,2013-07-24 02:00:00,
2013-07-23 21:05:00,66.9,57.6,29.95,NNE,31,1.0,2.0,72,0.00,,,0.00,Wunderground v.1.15,2013-07-24 02:05:00,
2013-07-23 21:10:00,66.8,58.2,29.95,WNW,286,2.0,3.0,74,0.00,,,0.00,Wunderground v.1.15,2013-07-24 02:10:00,
2013-07-23 21:15:00,66.4,57.5,29.95,WNW,286,2.0,2.0,73,0.00,,,0.00,Wunderground v.1.15,2013-07-24 02:15:00,
2013-07-23 21:21:00,66.5,57.2,29.96,WNW,286,2.0,2.0,72,0.00,,,0.00,Wunderground v.1.15,2013-07-24 02:21:00,
2013-07-23 21:26:00,66.6,56.9,29.96,WNW,286,1.0,2.0,71,0.00,,,0.00,Wunderground v.1.15,2013-07-24 02:26:00,
2013-07-23 21:32:00,66.8,57.1,29.96,WNW,286,2.0,2.0,71,0.00,,,0.00,Wunderground v.1.15,2013-07-24 02:32:00,
2013-07-23 21:37:00,66.9,57.2,29.96,WNW,286,2.0,2.0,71,0.00,,,0.00,Wunderground v.1.15,2013-07-24 02:37:00,
2013-07-23 21:42:00,66.8,57.1,29.96,WNW,286,2.0,2.0,71,0.00,,,0.00,Wunderground v.1.15,2013-07-24 02:42:00,
2013-07-23 21:48:00,66.7,57.4,29.96,WNW,286,3.0,4.0,72,0.00,,,0.00,Wunderground v.1.15,2013-07-24 02:48:00,
2013-07-23 21:53:00,65.8,57.3,29.96,WNW,286,3.0,4.0,74,0.00,,,0.00,Wunderground v.1.15,2013-07-24 02:53:00,
2013-07-23 21:58:00,64.8,57.1,29.97,WNW,286,4.0,4.0,76,0.00,,,0.00,Wunderground v.1.15,2013-07-24 02:58:00,
2013-07-23 22:04:00,64.1,57.1,29.97,WNW,286,3.0,4.0,78,0.00,,,0.00,Wunderground v.1.15,2013-07-24 03:04:00,
2013-07-23 22:09:00,63.5,56.9,29.97,WNW,286,3.0,4.0,79,0.00,,,0.00,Wunderground v.1.15,2013-07-24 03:09:00,
2013-07-23 22:14:00,63.1,56.8,29.97,WNW,286,2.0,3.0,80,0.00,,,0.00,Wunderground v.1.15,2013-07-24 03:14:00,
2013-07-23 22:19:00,63.0,56.4,29.97,WNW,298,2.0,3.0,79,0.00,,,0.00,Wunderground v.1.15,2013-07-24 03:19:00,
2013-07-23 22:24:00,62.9,56.3,29.97,WNW,298,2.0,3.0,79,0.00,,,0.00,Wunderground v.1.15,2013-07-24 03:24:00,
2013-07-23 22:29:00,62.6,56.3,29.97,WNW,298,2.0,3.0,80,0.00,,,0.00,Wunderground v.1.15,2013-07-24 03:29:00,
2013-07-23 22:35:00,62.8,56.5,29.97,WNW,298,1.0,2.0,80,0.00,,,0.00,Wunderground v.1.15,2013-07-24 03:35:00,
2013-07-23 22:40:00,62.3,56.4,29.97,WNW,298,2.0,3.0,81,0.00,,,0.00,Wunderground v.1.15,2013-07-24 03:40:00,
2013-07-23 22:46:00,61.7,56.5,29.97,WNW,298,2.0,3.0,83,0.00,,,0.00,Wunderground v.1.15,2013-07-24 03:46:00,
2013-07-23 22:51:00,61.4,56.5,29.97,NW,319,1.0,3.0,84,0.00,,,0.00,Wunderground v.1.15,2013-07-24 03:51:00,
2013-07-23 22:56:00,61.3,56.8,29.97,NW,319,2.0,2.0,85,0.00,,,0.00,Wunderground v.1.15,2013-07-24 03:56:00,
2013-07-23 23:01:00,61.1,56.6,29.97,NW,319,2.0,2.0,85,0.00,,,0.00,Wunderground v.1.15,2013-07-24 04:01:00,
2013-07-23 23:06:00,61.0,56.5,29.98,NW,308,2.0,3.0,85,0.00,,,0.00,Wunderground v.1.15,2013-07-24 04:06:00,
2013-07-23 23:11:00,60.9,56.4,29.98,WNW,301,3.0,3.0,85,0.00,,,0.00,Wunderground v.1.15,2013-07-24 04:11:00,
2013-07-23 23:16:00,60.6,56.1,29.98,WNW,286,2.0,3.0,85,0.00,,,0.00,Wunderground v.1.15,2013-07-24 04:16:00,
2013-07-23 23:21:00,60.2,56.0,29.98,WNW,286,1.0,3.0,86,0.00,,,0.00,Wunderground v.1.15,2013-07-24 04:21:00,
2013-07-23 23:26:00,59.9,56.0,29.98,WNW,286,2.0,2.0,87,0.00,,,0.00,Wunderground v.1.15,2013-07-24 04:26:00,
2013-07-23 23:31:00,59.7,55.8,29.98,WNW,286,2.0,2.0,87,0.00,,,0.00,Wunderground v.1.15,2013-07-24 04:31:00,
2013-07-23 23:36:00,59.4,55.5,29.98,WNW,298,2.0,2.0,87,0.00,,,0.00,Wunderground v.1.15,2013-07-24 04:36:00,
2013-07-23 23:41:00,59.5,55.9,29.98,NW,311,1.0,4.0,88,0.00,,,0.00,Wunderground v.1.15,2013-07-24 04:41:00,
2013-07-23 23:46:00,59.6,55.7,29.98,NW,311,2.0,3.0,87,0.00,,,0.00,Wunderground v.1.15,2013-07-24 04:46:00,
2013-07-23 23:51:00,59.8,55.9,29.98,NW,311,2.0,3.0,87,0.00,,,0.00,Wunderground v.1.15,2013-07-24 04:51:00,
2013-07-23 23:56:00,59.6,55.7,29.98,NW,311,3.0,3.0,87,0.00,,,0.00,Wunderground v.1.15,2013-07-24 04:56:00,